Weather History for KRKR - October, 2012

Change the Weather History Date:

Tuesday, October 16, 2012

  Actual Average (KFSM) Record (KFSM)
Temperature  
Mean Temperature 66 °F 63 °F  
Max Temperature 78 °F 75 °F 92 °F (1989)
Min Temperature 55 °F 51 °F 29 °F (1966)
Degree Days  
Heating Degree Days 0 4  
Month to date heating degree days 46  
Since 1 July heating degree days 63  
Cooling Degree Days 2 2  
Month to date cooling degree days 48  
Year to date cooling degree days 2026  
Growing Degree Days 16 (Base 50)    
Moisture  
Dew Point 52 °F    
Average Humidity 59    
Maximum Humidity 88    
Minimum Humidity 32    
Precipitation  
Precipitation 0.00 in 0.14 in 2.86 in (1915)
Month to date precipitation 2.14  
Year to date precipitation 35.55  
Sea Level Pressure  
Sea Level Pressure 29.82 in    
Wind  
Wind Speed 5 mph (SSW)    
Max Wind Speed 20 mph    
Max Gust Speed 26 mph    
Visibility 10 miles    
Events      
T = Trace of Precipitation, MM = Missing Value Source: NWS Daily Summary

Daily Weather History Graph

Daily Weather History Graph

Search for Another Location

Airport or City:

Trip Planner

Search our weather history database for the weather conditions in past years. The results will help you decide how hot, cold, wet, or windy it might be!

Date:

Astronomy

Oct. 16, 2012 Rise Set
Actual Time 7:25 AM CDT 6:41 PM CDT
Civil Twilight 7:00 AM CDT 7:07 PM CDT
Nautical Twilight 6:30 AM CDT 7:36 PM CDT
Astronomical Twilight 6:01 AM CDT 8:05 PM CDT
Moon 8:44 AM CDT (10/16) 7:32 PM CDT (10/16)
Length of Visible Light 12h 06m
Length of Day
11h 15m
New Moon, 2% of the Moon is Illuminated
Oct 16
New Moon
Oct 21
First Quarter
Oct 29
Full
Nov 6
Last Quarter
Nov 13
New

Hourly Weather History & Observations

Time (CDT) Temp. Dew Point Humidity Pressure Visibility Wind Dir Wind Speed Gust Speed Precip Events Conditions
12:15 AM 62.6 °F 51.8 °F 68% 29.97 in 10.0 mi SW 3.5 mph - N/A   Clear
12:35 AM 62.6 °F 51.8 °F 68% 29.96 in 10.0 mi SSW 4.6 mph - N/A   Clear
12:55 AM 60.8 °F 51.8 °F 72% 29.95 in 10.0 mi SW 4.6 mph - N/A   Clear
1:15 AM 60.8 °F 50.0 °F 68% 29.95 in 10.0 mi SW 4.6 mph - N/A   Clear
1:35 AM 60.8 °F 50.0 °F 68% 29.95 in 10.0 mi SW 4.6 mph - N/A   Clear
1:55 AM 60.8 °F 50.0 °F 68% 29.94 in 10.0 mi SW 4.6 mph - N/A   Clear
2:15 AM 60.8 °F 51.8 °F 72% 29.94 in 10.0 mi SSW 3.5 mph - N/A   Clear
2:35 AM 59.0 °F 50.0 °F 72% 29.93 in 10.0 mi SSW 3.5 mph - N/A   Clear
2:55 AM 59.0 °F 51.8 °F 77% 29.93 in 10.0 mi Calm Calm - N/A   Clear
3:15 AM 59.0 °F 50.0 °F 72% 29.92 in 10.0 mi Calm Calm - N/A   Clear
3:35 AM 57.2 °F 51.8 °F 82% 29.91 in 10.0 mi Calm Calm - N/A   Clear
3:55 AM 59.0 °F 50.0 °F 72% 29.91 in 10.0 mi Calm Calm - N/A   Clear
4:15 AM 59.0 °F 50.0 °F 72% 29.91 in 10.0 mi Calm Calm - N/A   Clear
4:35 AM 57.2 °F 50.0 °F 77% 29.91 in 10.0 mi Calm Calm - N/A   Clear
4:55 AM 59.0 °F 50.0 °F 72% 29.90 in 10.0 mi SSW 3.5 mph - N/A   Clear
5:35 AM 57.2 °F 50.0 °F 77% 29.90 in 10.0 mi Calm Calm - N/A   Clear
5:55 AM 59.0 °F 50.0 °F 72% 29.90 in 10.0 mi Calm Calm - N/A   Clear
6:15 AM 59.0 °F 50.0 °F 72% 29.90 in 10.0 mi Calm Calm - N/A   Clear
6:35 AM 59.0 °F 50.0 °F 72% 29.90 in 10.0 mi Calm Calm - N/A   Clear
7:15 AM 55.4 °F 50.0 °F 82% 29.90 in 10.0 mi Calm Calm - N/A   Clear
7:35 AM 55.4 °F 50.0 °F 82% 29.90 in 10.0 mi Calm Calm - N/A   Clear
7:55 AM 55.4 °F 51.8 °F 88% 29.90 in 10.0 mi Calm Calm - N/A   Clear
8:15 AM 59.0 °F 50.0 °F 72% 29.90 in 10.0 mi Calm Calm - N/A   Clear
8:35 AM 59.0 °F 51.8 °F 77% 29.91 in 10.0 mi Calm Calm - N/A   Clear
8:55 AM 62.6 °F 50.0 °F 63% 29.91 in 10.0 mi SSW 4.6 mph - N/A   Clear
9:15 AM 62.6 °F 51.8 °F 68% 29.90 in 10.0 mi Calm Calm - N/A   Clear
9:35 AM 62.6 °F 53.6 °F 72% 29.90 in 10.0 mi Calm Calm - N/A   Clear
9:55 AM 64.4 °F 55.4 °F 73% 29.91 in 10.0 mi Calm Calm - N/A   Clear
10:15 AM 69.8 °F 55.4 °F 60% 29.90 in 10.0 mi South 4.6 mph - N/A   Clear
10:35 AM 71.6 °F 53.6 °F 53% 29.90 in 10.0 mi South 5.8 mph - N/A   Scattered Clouds
10:55 AM 71.6 °F 51.8 °F 50% 29.90 in 10.0 mi South 6.9 mph - N/A   Clear
11:15 AM 73.4 °F 51.8 °F 47% 29.89 in 10.0 mi South 8.1 mph - N/A   Clear
11:35 AM 77.0 °F 51.8 °F 41% 29.88 in 10.0 mi South 6.9 mph - N/A   Clear
11:55 AM 77.0 °F 50.0 °F 39% 29.88 in 10.0 mi South 8.1 mph 16.1 mph N/A   Clear
12:15 PM 77.0 °F 46.4 °F 34% 29.86 in 10.0 mi South 15.0 mph 23.0 mph N/A   Clear
12:35 PM 78.8 °F 48.2 °F 34% 29.85 in 10.0 mi South 12.7 mph 23.0 mph N/A   Clear
12:55 PM 78.8 °F 46.4 °F 32% 29.84 in 10.0 mi South 17.3 mph 26.5 mph N/A   Clear
1:15 PM 78.8 °F 48.2 °F 34% 29.83 in 10.0 mi South 17.3 mph 25.3 mph N/A   Clear
1:35 PM 78.8 °F 48.2 °F 34% 29.82 in 10.0 mi South 19.6 mph 26.5 mph N/A   Clear
1:55 PM 78.8 °F 50.0 °F 36% 29.81 in 10.0 mi SSW 17.3 mph 23.0 mph N/A   Clear
2:15 PM 78.8 °F 51.8 °F 39% 29.80 in 10.0 mi South 13.8 mph 17.3 mph N/A   Clear
2:35 PM 78.8 °F 51.8 °F 39% 29.79 in 10.0 mi SSW 18.4 mph 23.0 mph N/A   Clear
2:55 PM 78.8 °F 51.8 °F 39% 29.77 in 10.0 mi South 12.7 mph 19.6 mph N/A   Clear
3:15 PM 78.8 °F 50.0 °F 36% 29.77 in 10.0 mi South 13.8 mph 23.0 mph N/A   Clear
3:35 PM 78.8 °F 51.8 °F 39% 29.76 in 10.0 mi SSW 13.8 mph 20.7 mph N/A   Clear
3:55 PM 78.8 °F 51.8 °F 39% 29.74 in 10.0 mi South 17.3 mph 21.9 mph N/A   Clear
4:15 PM 78.8 °F 51.8 °F 39% 29.73 in 10.0 mi South 11.5 mph 20.7 mph N/A   Clear
4:35 PM 77.0 °F 51.8 °F 41% 29.72 in 10.0 mi South 12.7 mph 19.6 mph N/A   Clear
4:55 PM 77.0 °F 51.8 °F 41% 29.71 in 10.0 mi South 12.7 mph 17.3 mph N/A   Clear
5:15 PM 77.0 °F 51.8 °F 41% 29.70 in 10.0 mi South 15.0 mph 19.6 mph N/A   Clear
5:35 PM 77.0 °F 51.8 °F 41% 29.69 in 10.0 mi South 13.8 mph 20.7 mph N/A   Clear
5:55 PM 73.4 °F 50.0 °F 44% 29.69 in 10.0 mi South 11.5 mph 20.7 mph N/A   Clear
6:15 PM 73.4 °F 51.8 °F 47% 29.69 in 10.0 mi SSW 9.2 mph 16.1 mph N/A   Clear
6:35 PM 71.6 °F 50.0 °F 46% 29.68 in 10.0 mi South 9.2 mph 18.4 mph N/A   Clear
6:55 PM 71.6 °F 51.8 °F 50% 29.67 in 10.0 mi South 5.8 mph - N/A   Clear
7:15 PM 69.8 °F 53.6 °F 56% 29.67 in 10.0 mi South 9.2 mph - N/A   Clear
7:35 PM 68.0 °F 51.8 °F 56% 29.67 in 10.0 mi South 9.2 mph - N/A   Clear
7:55 PM 68.0 °F 53.6 °F 60% 29.67 in 10.0 mi South 11.5 mph - N/A   Clear
8:15 PM 68.0 °F 53.6 °F 60% 29.67 in 10.0 mi South 10.4 mph - N/A   Clear
8:35 PM 68.0 °F 53.6 °F 60% 29.68 in 10.0 mi South 9.2 mph - N/A   Clear
8:55 PM 68.0 °F 55.4 °F 64% 29.69 in 10.0 mi SSW 3.5 mph - N/A   Clear
9:15 PM 68.0 °F 55.4 °F 64% 29.69 in 10.0 mi South 6.9 mph - N/A   Clear
9:35 PM 68.0 °F 57.2 °F 68% 29.71 in 10.0 mi South 5.8 mph - N/A   Clear
9:55 PM 66.2 °F 55.4 °F 68% 29.71 in 10.0 mi Calm Calm - N/A   Clear
10:35 PM 64.4 °F 57.2 °F 77% 29.71 in 10.0 mi South 6.9 mph - N/A   Clear
10:55 PM 64.4 °F 55.4 °F 73% 29.70 in 10.0 mi Calm Calm - N/A   Clear
11:15 PM 64.4 °F 55.4 °F 73% 29.70 in 10.0 mi Calm Calm - N/A   Clear
11:35 PM 62.6 °F 55.4 °F 77% 29.70 in 10.0 mi Calm Calm - N/A   Clear
11:55 PM 62.6 °F 57.2 °F 82% 29.69 in 10.0 mi South 3.5 mph - N/A   Clear